DW4238 Weather Reports


time (UTC)temp
F
wind
direction
speed
knots
gust
knots
rain 1hr
in
rain 24hr
in
rain mn
in
humidity
%
barometer
mb
20260906154602 87 194 0.9 6.1 0.00 0.00 0.00 80 1013.8
20260906154107 86 199 2.6 7.8 0.00 0.00 0.00 80 1013.8
20260906153618 86 255 1.7 7.8 0.00 0.00 0.00 81 1013.7
20260906153049 86 217 2.6 5.2 0.00 0.00 0.00 81 1013.7
20260906152554 85 207 1.7 5.2 0.00 0.00 0.00 82 1013.7
20260906151623 85 202 4.3 7.8 0.00 0.00 0.00 83 1013.8
20260906151128 84 193 5.2 7.8 0.00 0.00 0.00 84 1013.7
20260906150540 84 181 0.9 5.2 0.00 0.00 0.00 86 1013.7
20260906150147 84 182 2.6 7.0 0.00 0.00 0.00 86 1013.7
20260906145537 84 146 2.6 7.0 0.00 0.00 0.00 88 1013.7
20260906144559 83 177 2.6 5.2 0.00 0.00 0.00 90 1013.7
20260906144114 83 166 2.6 5.2 0.00 0.00 0.00 90 1013.7
20260906143536 82 169 3.5 5.2 0.00 0.00 0.00 90 1013.6
20260906143144 82 167 2.6 4.3 0.00 0.00 0.00 91 1013.7
20260906142638 82 150 1.7 4.3 0.00 0.00 0.00 91 1013.6
20260906142118 82 150 3.5 6.1 0.00 0.00 0.00 91 1013.7
20260906141546 82 136 3.5 7.0 0.00 0.00 0.00 91 1013.7
20260906141052 81 155 2.6 7.0 0.00 0.00 0.00 92 1013.6
20260906140121 81 158 4.3 7.0 0.00 0.00 0.00 92 1013.5
20260906135626 81 155 5.2 7.0 0.00 0.00 0.00 92 1013.5
20260906135116 81 180 4.3 5.2 0.00 0.00 0.00 93 1013.4
20260906134040 80 171 2.6 4.3 0.00 0.00 0.00 93 1013.3
20260906133103 80 156 2.6 6.1 0.00 0.00 0.00 93 1013.2
20260906132533 80 149 3.5 4.3 0.00 0.00 0.00 94 1013.2
20260906131555 79 134 1.7 4.3 0.00 0.00 0.00 93 1012.9
20260906131106 79 111 0.9 3.5 0.00 0.00 0.00 93 1012.9
20260906130107 79 132 1.7 2.6 0.00 0.00 0.00 93 1012.8
20260906125619 79 134 0.9 2.6 0.00 0.00 0.00 93 1012.8
20260906125124 79 137 0.0 0.0 0.00 0.00 0.00 93 1012.8
20260906124556 79 139 0.0 0.9 0.00 0.00 0.00 93 1012.8
20260906124110 78 136 0.0 0.0 0.00 0.00 0.00 93 1012.6
20260906123050 78 136 0.0 2.6 0.00 0.00 0.00 93 1012.5
20260906122554 78 136 0.0 2.6 0.00 0.00 0.00 93 1012.5
20260906121623 78 138 1.7 3.5 0.00 0.00 0.00 93 1012.4
20260906121127 79 140 0.0 2.6 0.00 0.00 0.00 93 1012.3
20260906120615 78 140 0.9 2.6 0.00 0.00 0.00 93 1012.2
20260906120035 79 142 0.9 3.5 0.00 0.00 0.00 93 1012.3
20260906115551 79 142 2.6 3.5 0.00 0.00 0.00 93 1012.3
20260906114613 79 143 1.7 3.5 0.00 0.00 0.00 93 1012.2
20260906114103 78 144 2.6 3.5 0.00 0.00 0.00 92 1012.1
20260906113603 78 148 0.0 0.0 0.00 0.00 0.00 92 1012.0
20260906113035 78 149 0.0 2.6 0.00 0.00 0.00 92 1011.8
20260906112547 78 150 0.0 4.3 0.00 0.00 0.00 92 1011.8
20260906111608 78 161 2.6 4.3 0.00 0.00 0.00 92 1011.7
20260906111058 78 175 0.9 2.6 0.00 0.00 0.00 92 1011.6
20260906110601 78 178 1.7 3.5 0.00 0.00 0.00 92 1011.5
20260906110032 78 180 1.7 3.5 0.00 0.00 0.00 92 1011.4
20260906105537 78 181 1.7 3.5 0.00 0.00 0.00 92 1011.4
20260906104606 78 205 2.6 3.5 0.00 0.00 0.00 92 1011.5
20260906104050 78 206 2.6 3.5 0.00 0.00 0.00 91 1011.6
20260906103120 79 209 0.0 2.6 0.00 0.00 0.00 91 1011.4
20260906102602 79 210 0.0 0.0 0.00 0.00 0.00 91 1011.4
20260906102114 79 211 0.0 0.0 0.00 0.00 0.00 91 1011.5
20260906101537 79 213 0.0 0.0 0.00 0.00 0.00 90 1011.4
20260906101049 79 213 0.0 0.0 0.00 0.00 0.00 91 1011.4
20260906100113 79 213 0.0 0.0 0.00 0.00 0.00 90 1011.2
20260906095625 79 214 0.0 0.0 0.00 0.00 0.00 90 1011.1
20260906095129 79 215 0.0 0.0 0.00 0.00 0.00 90 1011.1
20260906094557 79 215 0.0 0.0 0.00 0.00 0.00 90 1011.0
20260906094109 79 215 0.0 0.0 0.00 0.00 0.00 90 1011.0
20260906093614 79 215 0.0 0.0 0.00 0.00 0.00 90 1011.0
20260906093046 79 215 0.0 0.0 0.00 0.00 0.00 90 1011.0
20260906092557 79 215 0.0 0.0 0.00 0.00 0.00 89 1011.0
20260906091552 79 215 0.0 0.0 0.00 0.00 0.00 90 1011.0
20260906091104 79 215 0.0 0.0 0.00 0.00 0.00 90 1011.0
20260906090106 79 215 0.0 0.0 0.00 0.00 0.00 89 1010.9
20260906085556 79 215 0.0 0.0 0.00 0.00 0.00 89 1010.9
20260906084618 80 215 0.0 0.0 0.00 0.00 0.00 89 1011.1
20260906084110 79 215 0.0 0.0 0.00 0.00 0.00 89 1011.1
20260906083131 80 215 0.0 0.0 0.00 0.00 0.00 89 1011.1
20260906082535 80 216 0.0 0.0 0.00 0.00 0.00 89 1011.1
20260906081604 80 217 0.0 1.7 0.00 0.00 0.00 89 1011.1
20260906081045 80 218 0.0 2.6 0.00 0.00 0.00 89 1011.1
20260906080046 80 219 0.0 0.0 0.00 0.00 0.00 89 1011.2
20260906075558 80 219 0.0 0.9 0.00 0.00 0.00 89 1011.2
20260906075109 80 219 0.0 2.6 0.00 0.00 0.00 88 1011.2
20260906074533 80 219 0.9 2.6 0.00 0.00 0.00 88 1011.3
20260906074045 80 219 1.7 3.5 0.00 0.00 0.00 88 1011.3
20260906073107 80 219 0.0 0.0 0.00 0.00 0.00 88 1011.6
20260906072557 80 219 0.0 2.6 0.00 0.00 0.00 88 1011.6
20260906071621 80 218 1.7 3.5 0.00 0.00 0.00 88 1011.7
20260906071112 80 216 1.7 3.5 0.00 0.00 0.00 88 1011.7
20260906070616 80 216 0.9 3.5 0.00 0.00 0.00 88 1011.8
20260906070039 80 215 0.9 3.5 0.00 0.00 0.00 88 1011.8
20260906065550 80 198 1.7 3.5 0.00 0.00 0.00 88 1011.8
20260906065033 80 198 1.7 4.3 0.00 0.00 0.00 88 1011.8
20260906064534 80 197 2.6 4.3 0.00 0.00 0.00 88 1011.8
20260906064044 80 195 1.7 3.5 0.00 0.00 0.00 88 1011.7
20260906063534 80 194 2.6 4.3 0.00 0.00 0.00 88 1011.7
20260906063044 80 192 2.6 4.3 0.00 0.00 0.00 88 1011.8
20260906062534 80 192 2.6 4.3 0.00 0.00 0.00 88 1011.9
20260906062103 80 191 1.7 3.5 0.00 0.00 0.00 88 1011.9
20260906061542 80 171 1.7 3.5 0.00 0.00 0.00 88 1012.0
20260906061052 80 171 0.0 4.3 0.00 0.00 0.00 89 1011.9
20260906060559 80 170 3.5 4.3 0.00 0.00 0.00 89 1011.9
20260906060034 80 170 3.5 4.3 0.00 0.00 0.00 89 1011.8
20260906055544 80 169 3.5 5.2 0.00 0.00 0.00 89 1011.7
20260906055034 80 163 0.9 4.3 0.00 0.00 0.00 89 1011.6
20260906054555 80 160 1.7 5.2 0.00 0.00 0.00 89 1011.8
20260906054105 80 161 2.6 5.2 0.00 0.00 0.00 89 1011.8
20260906053554 79 163 1.7 5.2 0.00 0.00 0.00 89 1011.9
20260906053108 79 164 3.5 6.1 0.00 0.00 0.00 89 1011.8
20260906052537 79 161 4.3 6.1 0.00 0.00 0.00 89 1012.0
20260906052049 79 168 3.5 6.1 0.00 0.00 0.00 89 1012.0
20260906051609 79 145 2.6 6.1 0.00 0.00 0.00 89 1011.9
20260906051058 79 144 3.5 6.1 0.00 0.00 0.00 89 1011.8
20260906050542 79 171 3.5 7.8 0.00 0.00 0.00 89 1011.8
20260906050042 79 156 4.3 7.8 0.00 0.00 0.00 89 1011.8
20260906045141 79 168 5.2 8.7 0.00 0.00 0.00 89 1011.9
20260906044547 79 160 6.1 7.8 0.00 0.00 0.00 88 1011.8
20260906044052 79 153 5.2 7.8 0.00 0.00 0.00 88 1012.0
20260906043601 79 146 3.5 7.8 0.00 0.00 0.00 88 1012.0
20260906043033 79 144 4.3 7.8 0.00 0.00 0.00 88 1012.1
20260906042538 79 145 3.5 7.0 0.00 0.00 0.00 87 1012.1
20260906041601 79 159 1.7 5.2 0.00 0.00 0.00 87 1011.9
20260906041114 79 157 2.6 7.0 0.00 0.00 0.00 87 1011.9
20260906040626 79 157 4.3 7.8 0.00 0.00 0.00 86 1011.9
20260906040046 79 153 4.3 7.0 0.00 0.00 0.00 86 1011.9
20260906035558 79 144 3.5 7.0 0.00 0.00 0.00 85 1012.1
20260906034625 79 146 3.5 6.1 0.00 0.00 0.00 85 1011.9
20260906034034 79 145 2.6 4.3 0.00 0.00 0.00 85 1011.9
20260906033532 80 142 3.5 7.0 0.00 0.00 0.00 84 1011.8
20260906032539 80 141 2.6 4.3 0.00 0.00 0.00 84 1011.8
20260906031600 80 140 0.0 4.3 0.00 0.00 0.00 83 1011.9
20260906031050 80 141 0.0 3.5 0.00 0.00 0.00 83 1011.9
20260906030117 80 149 3.5 6.1 0.00 0.00 0.00 83 1011.8
20260906025625 80 111 3.5 6.1 0.00 0.00 0.00 82 1011.9
20260906025129 80 136 3.5 7.0 0.00 0.00 0.00 82 1011.8
20260906024556 80 140 4.3 7.0 0.00 0.00 0.00 82 1011.6
20260906024047 81 142 3.5 7.8 0.00 0.00 0.00 82 1011.6
20260906023106 81 146 2.6 7.0 0.00 0.00 0.00 82 1011.4
20260906022611 81 150 3.5 6.1 0.00 0.00 0.00 82 1011.3
20260906022124 81 143 2.6 6.1 0.00 0.00 0.00 81 1011.3
20260906021555 81 146 3.5 7.0 0.00 0.00 0.00 81 1011.3
20260906021037 81 144 3.5 7.0 0.00 0.00 0.00 81 1011.1
20260906020106 81 146 2.6 6.1 0.00 0.00 0.00 81 1010.9
20260906015550 81 134 0.9 6.1 0.00 0.00 0.00 81 1010.8
20260906014551 82 133 2.6 7.8 0.00 0.00 0.00 80 1010.7
20260906014104 82 141 5.2 7.8 0.00 0.00 0.00 80 1010.5
20260906013647 82 140 3.5 7.0 0.00 0.00 0.00 80 1010.5
20260906013054 82 143 3.5 6.1 0.00 0.00 0.00 80 1010.5
20260906012606 82 142 3.5 7.0 0.00 0.00 0.00 80 1010.4
20260906011607 83 141 3.5 8.7 0.00 0.00 0.00 79 1010.5
20260906011103 83 153 2.6 6.1 0.00 0.00 0.00 79 1010.5
20260906010103 83 138 2.6 7.8 0.00 0.00 0.00 78 1010.4
20260906005607 83 145 4.3 7.8 0.00 0.00 0.00 78 1010.5
20260906005112 84 143 3.5 7.8 0.00 0.00 0.00 77 1010.5
20260906004543 84 128 4.3 8.7 0.00 0.00 0.00 77 1010.6
20260906004048 84 101 5.2 8.7 0.00 0.00 0.00 77 1010.7
20260906003107 84 140 3.5 10.4 0.00 0.00 0.00 76 1010.7
20260906002620 84 141 7.0 10.4 0.00 0.00 0.00 76 1010.8
20260906002110 85 135 2.6 7.8 0.00 0.00 0.00 75 1010.8
20260906001535 85 103 4.3 8.7 0.00 0.00 0.00 74 1010.8
20260906001046 85 126 4.3 9.6 0.00 0.00 0.00 74 1010.9
20260906000109 86 124 7.0 12.2 0.00 0.00 0.00 72 1010.8
20260905235556 86 115 6.1 13.0 0.00 0.00 0.00 72 1010.7
20260905234618 86 136 6.1 13.0 0.00 0.00 0.00 69 1010.6
20260905234047 87 135 6.1 13.0 0.00 0.00 0.00 68 1010.7
20260905233630 88 138 7.8 15.6 0.00 0.00 0.00 67 1010.7
20260905233036 89 181 8.7 13.9 0.00 0.00 0.00 66 1010.6
20260905232541 90 94 5.2 10.4 0.00 0.00 0.00 66 1010.4
20260905231614 90 69 5.2 13.9 0.00 0.00 0.00 65 1010.3
20260905231119 91 77 7.0 13.9 0.00 0.00 0.00 65 1010.2
20260905230624 91 63 3.5 5.2 0.00 0.00 0.00 66 1010.2
20260905230034 91 54 1.7 4.3 0.00 0.00 0.00 66 1010.2
20260905225539 91 63 2.6 6.1 0.00 0.00 0.00 66 1010.2
20260905224602 90 41 2.6 7.8 0.00 0.00 0.00 67 1010.1
20260905224111 90 63 3.5 8.7 0.00 0.00 0.00 67 1010.1
20260905223131 90 30 4.3 8.7 0.00 0.00 0.00 65 1010.2
20260905222621 91 34 4.3 9.6 0.00 0.00 0.00 64 1010.2
20260905222128 91 41 5.2 9.6 0.00 0.00 0.00 64 1010.2
20260905221553 91 13 5.2 9.6 0.00 0.00 0.00 64 1010.1
20260905221105 91 30 4.3 8.7 0.00 0.00 0.00 63 1010.0
20260905220603 92 14 6.1 10.4 0.00 0.00 0.00 61 1010.0
20260905220034 92 22 4.3 10.4 0.00 0.00 0.00 59 1010.0
20260905215538 94 33 5.2 9.6 0.00 0.00 0.00 55 1010.0
20260905214608 95 142 1.7 7.0 0.00 0.00 0.00 53 1010.2
20260905214112 95 144 4.3 7.0 0.00 0.00 0.00 52 1010.2
20260905213629 95 150 2.6 5.2 0.00 0.00 0.00 53 1010.2
20260905213056 95 86 2.6 7.8 0.00 0.00 0.00 54 1010.2
20260905212539 95 69 3.5 7.8 0.00 0.00 0.00 54 1010.2
20260905212151 95 120 3.5 7.8 0.00 0.00 0.00 54 1010.2
20260905211550 95 94 4.3 7.8 0.00 0.00 0.00 54 1010.2
20260905211101 95 71 3.5 7.0 0.00 0.00 0.00 56 1010.2
20260905210613 95 120 2.6 7.0 0.00 0.00 0.00 55 1010.2
20260905210034 95 98 3.5 13.0 0.00 0.00 0.00 56 1010.3
20260905205546 95 149 6.1 13.0 0.00 0.00 0.00 57 1010.3
20260905204613 94 84 2.6 7.8 0.00 0.00 0.00 57 1010.4
20260905204121 94 69 0.9 7.8 0.00 0.00 0.00 58 1010.4
20260905203100 94 88 2.6 6.1 0.00 0.00 0.00 57 1010.7
20260905202543 94 138 1.7 7.8 0.00 0.00 0.00 58 1010.8
20260905201605 94 148 4.3 7.8 0.00 0.00 0.00 57 1010.9
20260905201118 94 169 3.5 7.0 0.00 0.00 0.00 57 1011.0
20260905200629 93 200 2.6 8.7 0.00 0.00 0.00 58 1011.0
20260905200049 93 137 4.3 9.6 0.00 0.00 0.00 59 1011.2
20260905195604 93 138 0.9 6.1 0.00 0.00 0.00 59 1011.2
20260905195105 93 128 1.7 7.0 0.00 0.00 0.00 59 1011.2
20260905194536 93 129 2.6 7.8 0.00 0.00 0.00 58 1011.2
20260905194045 93 113 3.5 7.8 0.00 0.00 0.00 59 1011.2
20260905193650 93 106 4.3 7.8 0.00 0.00 0.00 59 1011.4
20260905193057 93 136 5.2 7.8 0.00 0.00 0.00 60 1011.4
20260905192547 93 144 2.6 6.1 0.00 0.00 0.00 60 1011.5
20260905192106 92 280 1.7 4.3 0.00 0.00 0.00 59 1011.7
20260905191539 92 145 0.0 4.3 0.00 0.00 0.00 63 1011.8
20260905191049 92 144 2.6 7.0 0.00 0.00 0.00 61 1011.9
20260905190116 92 108 1.7 6.1 0.00 0.00 0.00 63 1012.1
20260905185628 92 167 2.6 6.1 0.00 0.00 0.00 63 1012.1
20260905185107 91 154 0.0 7.0 0.00 0.00 0.00 65 1012.2
20260905184539 91 151 2.6 7.0 0.00 0.00 0.00 64 1012.4
20260905183540 91 169 3.5 7.8 0.00 0.00 0.00 64 1012.5
20260905183131 91 179 3.5 7.0 0.00 0.00 0.00 65 1012.5
20260905182535 91 183 3.5 5.2 0.00 0.00 0.00 66 1012.7
20260905181557 90 192 2.6 7.8 0.00 0.00 0.00 69 1012.9
20260905181114 90 121 2.6 7.8 0.00 0.00 0.00 69 1012.9
20260905180626 90 132 3.5 7.8 0.00 0.00 0.00 69 1013.0
20260905180046 89 123 2.6 9.6 0.00 0.00 0.00 71 1013.2
20260905175536 89 153 6.1 9.6 0.00 0.00 0.00 73 1013.2
20260905174557 89 146 0.9 7.0 0.00 0.00 0.00 73 1013.3
20260905174109 88 355 3.5 7.8 0.00 0.00 0.00 75 1013.4
20260905173131 87 140 0.9 7.0 0.00 0.00 0.00 77 1013.6
20260905172622 87 66 0.9 3.5 0.00 0.00 0.00 78 1013.7
20260905172124 86 313 1.7 5.2 0.00 0.00 0.00 78 1013.8
20260905171556 86 313 3.5 7.0 0.00 0.00 0.00 79 1013.8
20260905171100 86 327 3.5 7.8 0.00 0.00 0.00 78 1013.8
20260905170607 86 334 5.2 7.8 0.00 0.00 0.00 78 1013.8
20260905170036 86 305 4.3 7.0 0.00 0.00 0.00 76 1013.8
20260905165540 86 322 4.3 7.8 0.00 0.00 0.00 77 1013.9
20260905164610 87 315 4.3 7.0 0.00 0.00 0.00 76 1013.8
20260905164115 88 339 3.5 5.2 0.00 0.00 0.00 75 1013.8
20260905163626 89 294 0.0 2.6 0.00 0.00 0.00 74 1013.8
20260905163051 88 279 0.0 2.6 0.00 0.00 0.00 74 1013.9
20260905162604 88 278 0.0 3.5 0.00 0.00 0.00 76 1013.9
20260905162110 87 270 1.7 6.1 0.00 0.00 0.00 76 1013.9
20260905161536 87 254 0.9 6.1 0.00 0.00 0.00 75 1013.8
20260905161047 87 252 2.6 6.1 0.00 0.00 0.00 77 1013.8
20260905160108 86 243 1.7 4.3 0.00 0.00 0.00 79 1013.8
20260905155619 86 216 0.9 4.3 0.00 0.00 0.00 79 1013.8
20260905155124 86 215 3.5 6.1 0.00 0.00 0.00 79 1013.8